Simultaneous Nadir Overpasses (SNOs) Predictions

Prediction of SNOs between GOES-16 and NOAA-19 Satellite Orbit:

Table of predicted SNOs for the next 14.0 days since TLE Epoch: 5/3/2019
Index Date Time (GOES-16) GOES-16 Lat,Lon NOAA-19 Lat,Lon Distance(km) Time Diff (sec)
1 05/04/2019 21:58:15 0.01, -75.22 -0.50, -77.36 244.05 80
2 05/05/2019 21:49:19 0.01, -75.23 0.18, -74.53 80.69 80
3 05/06/2019 21:37:42 0.00, -75.24 0.85, -71.69 405.45 80
4 05/08/2019 10:10:21 -0.00, -75.26 1.00, -79.50 484.26 80
5 05/09/2019 09:58:44 0.00, -75.27 0.31, -76.67 159.43 80
6 05/10/2019 09:44:27 0.00, -75.28 -0.32, -73.83 165.48 80
7 05/11/2019 09:32:50 -0.00, -75.29 -1.01, -71.00 490.46 80
8 05/12/2019 22:05:46 -0.00, -75.30 -0.84, -78.87 408.00 80
9 05/13/2019 21:54:09 -0.00, -75.32 -0.15, -76.04 82.56 80
10 05/14/2019 21:45:12 -0.00, -75.34 0.47, -73.20 243.13 80
11 05/17/2019 10:06:12 -0.00, -75.40 0.67, -78.18 318.12 80




NCC Satellite Simultaneous Nadir Overpasses (SNOs) Prediction Service
